When you browse on this site, cookies collect data to enhance your experience and personalize the content and advertising you see.
Visit our Privacy Policy to learn more. By continuing to use the site, you agree to this use of cookies and data.
  • In Czech Republic
  • List of Countries
  • For 7 days
  • Water Temperature
  • Satellite Maps
  • Weather Map
  • Weather Widgets
  • user-avatar
    Login

    Hourly Weather Kitzbuhel

    Today, 17 November, Saturday

    Time Temperature Precipitation Wind Pressure Humidity
    00:00 -1°C° 0 mm 2 mps 682 mmHg 83%
    01:00 -1°C° 0 mm 2 mps 681 mmHg 83%
    02:00 -2°C° 0 mm 2 mps 681 mmHg 82%
    03:00 -2°C° 0 mm 2 mps 681 mmHg 81%
    04:00 -2°C° 0 mm 2 mps 681 mmHg 80%
    05:00 -2°C° 0 mm 2 mps 681 mmHg 78%
    06:00 -2°C° 0 mm 2 mps 681 mmHg 76%
    07:00 -2°C° 0 mm 2 mps 681 mmHg 74%
    08:00 +1°C° 0 mm 2 mps 681 mmHg 67%
    09:00 +2°C° 0 mm 2 mps 682 mmHg 59%
    10:00 +4°C° 0 mm 2 mps 682 mmHg 52%
    11:00 +5°C° 0 mm 2 mps 682 mmHg 49%
    12:00 +6°C° 0 mm 2 mps 681 mmHg 46%
    13:00 +7°C° 0 mm 2 mps 681 mmHg 43%
    14:00 +6°C° 0 mm 2 mps 681 mmHg 49%
    15:00 +4°C° 0 mm 2 mps 680 mmHg 56%
    16:00 +3°C° 0 mm 2 mps 680 mmHg 62%
    17:00 +2°C° 0 mm 2 mps 680 mmHg 67%
    18:00 -1°C° 0 mm 2 mps 680 mmHg 72%
    19:00 -2°C° 0 mm 2 mps 680 mmHg 77%
    20:00 -2°C° 0 mm 2 mps 680 mmHg 75%
    21:00 -2°C° 0 mm 2 mps 680 mmHg 73%
    22:00 -2°C° 0 mm 2 mps 680 mmHg 71%
    23:00 -2°C° 0 mm 2 mps 680 mmHg 69%

    Tomorrow, 18 November, Sunday

    Time Temperature Precipitation Wind Pressure Humidity
    00:00 -2°C° 0 mm 2 mps 680 mmHg 67%
    01:00 -3°C° 0 mm 2 mps 680 mmHg 66%
    02:00 -3°C° 0 mm 2 mps 680 mmHg 65%
    03:00 -3°C° 0 mm 2 mps 680 mmHg 65%
    04:00 -3°C° 0 mm 2 mps 679 mmHg 64%
    05:00 -3°C° 0 mm 2 mps 679 mmHg 63%
    06:00 -3°C° 0 mm 2 mps 679 mmHg 62%
    07:00 -1°C° 0 mm 1 mps 679 mmHg 61%
    08:00 -2°C° 0 mm 2 mps 679 mmHg 56%
    09:00 +1°C° 0 mm 2 mps 679 mmHg 51%
    10:00 +3°C° 0 mm 2 mps 680 mmHg 46%
    11:00 +4°C° 0 mm 2 mps 679 mmHg 44%
    12:00 +4°C° 0 mm 2 mps 679 mmHg 43%
    13:00 +5°C° 0 mm 2 mps 679 mmHg 42%
    14:00 +4°C° 0 mm 2 mps 678 mmHg 49%
    15:00 +4°C° 0 mm 1 mps 678 mmHg 56%
    16:00 +3°C° 0 mm 1 mps 677 mmHg 62%
    17:00 +2°C° 0 mm 1 mps 677 mmHg 68%
    18:00 +1°C° 0 mm 1 mps 676 mmHg 73%
    19:00 -1°C° 0 mm 1 mps 676 mmHg 78%
    20:00 -1°C° 0 mm 1 mps 676 mmHg 79%
    21:00 -1°C° 0 mm 1 mps 676 mmHg 80%
    22:00 -1°C° 0 mm 1 mps 676 mmHg 81%
    23:00 -1°C° 0 mm 1 mps 675 mmHg 83%

    Day after tomorrow, 19 November, Monday

    Time Temperature Precipitation Wind Pressure Humidity
    00:00 -2°C° 0 mm 1 mps 675 mmHg 84%
    01:00 -2°C° 0 mm 1 mps 675 mmHg 86%
    02:00 -2°C° 0 mm 1 mps 675 mmHg 87%
    03:00 -2°C° 0 mm 1 mps 674 mmHg 88%
    04:00 -2°C° 0 mm 1 mps 674 mmHg 89%
    05:00 -2°C° 0.1 mm 1 mps 674 mmHg 90%
    06:00 -2°C° 0.1 mm 1 mps 674 mmHg 90%
    07:00 -2°C° 0.1 mm 1 mps 673 mmHg 91%
    08:00 -1°C° 0.1 mm 1 mps 673 mmHg 86%
    09:00 -1°C° 0.1 mm 1 mps 673 mmHg 81%
    10:00 0°C° 0.1 mm 1 mps 673 mmHg 76%
    11:00 -2°C° 0.1 mm 2 mps 673 mmHg 73%
    12:00 -1°C° 0.1 mm 2 mps 672 mmHg 70%
    13:00 -1°C° 0.1 mm 2 mps 672 mmHg 67%
    14:00 -1°C° 0.1 mm 2 mps 672 mmHg 72%
    15:00 -2°C° 0.1 mm 2 mps 671 mmHg 76%
    16:00 -2°C° 0.1 mm 2 mps 671 mmHg 80%
    17:00 -1°C° 0.2 mm 1 mps 671 mmHg 83%
    18:00 -1°C° 0.2 mm 1 mps 671 mmHg 87%
    19:00 -2°C° 0.2 mm 1 mps 670 mmHg 90%
    20:00 -2°C° 0.1 mm 1 mps 670 mmHg 91%
    21:00 -2°C° 0.1 mm 1 mps 670 mmHg 91%
    22:00 -3°C° 0.1 mm 1 mps 670 mmHg 92%
    23:00 -3°C° 0 mm 1 mps 670 mmHg 92%

    20 November, Tuesday

    Time Temperature Precipitation Wind Pressure Humidity
    00:00 -3°C° 0 mm 1 mps 670 mmHg 93%
    01:00 -3°C° 0 mm 1 mps 669 mmHg 93%
    02:00 -4°C° 0 mm 1 mps 669 mmHg 92%
    03:00 -4°C° 0 mm 1 mps 669 mmHg 92%
    04:00 -4°C° 0 mm 1 mps 668 mmHg 91%
    05:00 -4°C° 0 mm 1 mps 668 mmHg 90%
    06:00 -4°C° 0 mm 1 mps 668 mmHg 89%
    07:00 -4°C° 0 mm 1 mps 668 mmHg 88%
    08:00 -3°C° 0 mm 1 mps 668 mmHg 81%
    09:00 -2°C° 0 mm 1 mps 668 mmHg 75%
    10:00 0°C° 0 mm 1 mps 668 mmHg 68%
    11:00 -2°C° 0 mm 2 mps 668 mmHg 66%
    12:00 -1°C° 0 mm 2 mps 667 mmHg 64%
    13:00 -1°C° 0 mm 2 mps 667 mmHg 62%
    14:00 -1°C° 0 mm 2 mps 666 mmHg 68%
    15:00 -2°C° 0 mm 2 mps 666 mmHg 74%
    16:00 -2°C° 0 mm 2 mps 666 mmHg 81%
    17:00 -3°C° 0.2 mm 2 mps 666 mmHg 84%
    18:00 -1°C° 0.2 mm 1 mps 666 mmHg 88%
    19:00 -2°C° 0.2 mm 1 mps 666 mmHg 91%
    20:00 -2°C° 0.3 mm 1 mps 666 mmHg 92%
    21:00 -2°C° 0.3 mm 1 mps 665 mmHg 92%
    22:00 -2°C° 0.3 mm 1 mps 665 mmHg 93%
    23:00 -2°C° 0.4 mm 1 mps 665 mmHg 93%

    21 November, Wednesday

    Time Temperature Precipitation Wind Pressure Humidity
    00:00 -2°C° 0.4 mm 1 mps 665 mmHg 93%
    01:00 -2°C° 0.4 mm 1 mps 665 mmHg 94%
    02:00 -2°C° 0.7 mm 1 mps 665 mmHg 94%
    03:00 -2°C° 0.7 mm 1 mps 664 mmHg 94%
    04:00 -2°C° 0.7 mm 1 mps 664 mmHg 95%
    05:00 -2°C° 0.5 mm 1 mps 664 mmHg 95%
    06:00 -2°C° 0.5 mm 1 mps 664 mmHg 95%
    07:00 -3°C° 0.5 mm 1 mps 664 mmHg 96%
    08:00 -2°C° 0.2 mm 1 mps 664 mmHg 92%
    09:00 -1°C° 0.2 mm 1 mps 665 mmHg 89%
    10:00 -1°C° 0.2 mm 1 mps 665 mmHg 86%
    11:00 -1°C° 0.2 mm 1 mps 665 mmHg 86%
    12:00 -2°C° 0.2 mm 2 mps 665 mmHg 85%
    13:00 -2°C° 0.2 mm 2 mps 665 mmHg 85%
    14:00 -3°C° 0.4 mm 2 mps 665 mmHg 87%
    15:00 -3°C° 0.4 mm 2 mps 665 mmHg 90%
    16:00 -3°C° 0.4 mm 2 mps 666 mmHg 92%
    17:00 -4°C° 0.5 mm 2 mps 666 mmHg 93%
    18:00 -4°C° 0.5 mm 2 mps 667 mmHg 94%
    19:00 -4°C° 0.5 mm 2 mps 667 mmHg 95%
    20:00 -4°C° 0.4 mm 2 mps 668 mmHg 95%
    21:00 -5°C° 0.4 mm 2 mps 668 mmHg 95%
    22:00 -5°C° 0.4 mm 2 mps 669 mmHg 95%
    23:00 -5°C° 0.2 mm 2 mps 669 mmHg 95%

    22 November, Thursday

    Time Temperature Precipitation Wind Pressure Humidity
    00:00 -3°C° 0.2 mm 1 mps 669 mmHg 95%
    01:00 -3°C° 0.2 mm 1 mps 669 mmHg 95%
    02:00 -4°C° 0.1 mm 1 mps 670 mmHg 95%
    03:00 -4°C° 0.1 mm 1 mps 670 mmHg 95%
    04:00 -4°C° 0.1 mm 1 mps 670 mmHg 95%
    05:00 -4°C° 0.1 mm 1 mps 671 mmHg 95%
    06:00 -6°C° 0.1 mm 1 mps 671 mmHg 95%
    07:00 -6°C° 0.1 mm 1 mps 671 mmHg 95%
    08:00 -4°C° 0 mm 1 mps 672 mmHg 90%
    09:00 -3°C° 0 mm 1 mps 672 mmHg 86%
    10:00 -2°C° 0 mm 1 mps 673 mmHg 82%
    11:00 -2°C° 0 mm 1 mps 673 mmHg 80%
    12:00 -1°C° 0 mm 1 mps 673 mmHg 77%
    13:00 0°C° 0 mm 1 mps 673 mmHg 75%
    14:00 -1°C° 0.1 mm 1 mps 674 mmHg 79%
    15:00 -2°C° 0.1 mm 1 mps 674 mmHg 83%
    16:00 -2°C° 0.1 mm 1 mps 674 mmHg 87%
    17:00 -3°C° 0.1 mm 1 mps 674 mmHg 90%
    18:00 -4°C° 0.1 mm 1 mps 675 mmHg 92%
    19:00 -6°C° 0.1 mm 1 mps 675 mmHg 95%
    20:00 -7°C° 0 mm 1 mps 675 mmHg 94%
    21:00 -7°C° 0 mm 1 mps 676 mmHg 93%
    22:00 -8°C° 0 mm 1 mps 676 mmHg 92%
    23:00 -8°C° 0 mm 1 mps 676 mmHg 90%
    Show more